Location: The Saddle
(36.8333°N, 80.3417°W)
Time: 08:52:59
(UTC-05:00)

S-56A Canister/Altair - Pass Details

Date: 13 December 2023
Orbit: 640 x 2488 km, 38.9° (Epoch: 25 February)

Event Time Altitude Azimuth Distance (km) Brightness Sun altitude
Rises 05:49:38 0° 189° (S) 5,223 11.9 -18.6°
Reaches altitude 10° 05:56:37 10° 161° (SSE) 3,703 11.5 -17.2°
Maximum altitude 05:59:16 11° 144° (SE) 3,369 11.6 -16.7°
Drops below altitude 10° 06:01:41 10° 126° (SE) 3,281 11.9 -16.2°
Sets 06:06:39 0° 95° (E) 3,820 12.7 -15.3°
